1532613600.57,15251,20.56,74176.8,16.27,8.47,8.89,0,*4F
1532613601.78,15252,20.56,74174.0,16.23,7.83,8.19,0,*46
1532613603.02,15253,20.56,74172.5,16.23,7.87,8.13,0,*49
1532613604.21,15254,20.56,74174.8,16.23,7.05,7.29,0,*42
1532613605.42,15255,20.56,74174.5,16.19,8.33,8.65,0,*47
1532613606.65,15256,20.56,74170.8,16.19,6.33,6.47,0,*44
1532613607.91,15257,20.56,74172.5,16.17,7.61,7.83,0,*44
1532613609.17,15258,20.56,74174.5,16.17,8.13,8.33,0,*45
1532613610.38,15259,20.56,74174.5,16.15,7.87,7.97,0,*45
1532613611.6,15260,20.56,74172.8,16.17,8.19,8.45,0,*45
1532613612.81,15261,20.56,74178.5,16.17,7.97,8.23,0,*4D
1532613614.02,15262,20.56,74172.5,16.15,8.09,8.41,0,*40
1532613615.23,15263,20.56,74178.5,16.15,8.13,8.61,0,*48
1532613616.48,15264,20.56,74172.3,16.15,7.19,7.61,0,*45
1532613617.72,15265,20.56,74176.3,16.13,7.37,7.95,0,*45
1532613618.98,15266,20.56,74180.5,16.13,7.83,8.41,0,*4F
1532613620.19,15267,20.56,74176.8,16.13,7.41,8.19,0,*4D
1532613621.43,15268,20.56,74180.0,16.13,7.59,8.41,0,*46
1532613622.66,15269,20.56,74176.5,16.11,7.73,8.47,0,*4B
1532613623.89,15270,20.56,74182.5,16.11,7.11,7.73,0,*4F
1532613625.1,15271,20.56,74178.8,16.11,5.93,6.33,0,*43
1532613626.32,15272,20.56,74178.3,16.07,5.77,6.47,0,*4E
1532613627.54,15273,20.56,74180.5,16.05,6.93,7.65,0,*45
1532613628.77,15274,20.56,74176.3,16.01,7.01,7.61,0,*48
1532613630.01,15275,20.56,74178.8,16.01,7.69,8.29,0,*44
1532613631.23,15276,20.56,74180.0,15.99,7.83,8.33,0,*4A
1532613632.47,15277,20.56,74178.0,16.01,7.29,7.69,0,*49
1532613633.69,15278,20.56,74174.8,16.01,7.47,7.51,0,*45
1532613634.94,15279,20.56,74176.5,16.01,6.91,7.19,0,*42
1532613636.17,15280,20.56,74174.8,15.99,7.65,7.95,0,*48
1532613637.36,15281,20.56,74178.5,15.97,7.97,8.23,0,*48
1532613638.59,15282,20.56,74178.8,15.97,7.79,7.91,0,*4D
1532613639.81,15283,20.56,74176.8,15.97,6.87,7.33,0,*44
1532613641.04,15284,20.56,74176.5,15.97,7.45,7.91,0,*44
1532613642.24,15285,20.56,74174.8,15.95,7.55,8.13,0,*43
1532613643.46,15286,20.56,74178.0,15.93,6.69,6.97,0,*4A
1532613644.71,15287,20.56,74172.3,15.93,6.61,7.15,0,*48
1532613645.94,15288,20.56,74174.5,15.93,7.05,7.73,0,*44
1532613647.13,15289,20.56,74174.0,15.91,7.47,8.09,0,*43
1532613648.34,15290,20.56,74172.3,15.91,6.51,6.79,0,*44
1532613649.56,15291,20.56,74172.8,15.91,6.17,6.69,0,*46
1532613650.73,15292,20.56,74174.0,15.91,7.01,7.45,0,*4C
1532613651.92,15293,20.56,74174.8,15.89,7.01,7.37,0,*41
1532613653.15,15294,20.56,74172.3,15.89,7.45,7.95,0,*4E
1532613654.38,15295,20.56,74174.5,15.89,6.11,6.47,0,*41
1532613655.64,15296,20.56,74170.8,15.85,6.43,6.87,0,*45
1532613656.87,15297,20.56,74172.8,15.83,5.93,6.35,0,*45
1532613658.07,15298,20.56,74172.8,15.81,5.71,6.25,0,*45
1532613659.33,15299,20.56,74172.8,15.79,6.13,6.91,0,*4B
1532613660.55,15300,20.56,74172.5,15.79,5.67,6.53,0,*44
1532613661.76,15301,20.56,74178.0,15.79,5.07,6.03,0,*46
1532613662.92,15302,20.56,74176.8,15.77,5.29,6.21,0,*47
1532613664.12,15303,20.56,74174.8,15.77,5.41,6.47,0,*48
1532613665.34,15304,20.56,74178.5,15.75,5.37,6.43,0,*48
1532613666.51,15305,20.56,74174.5,15.77,5.67,6.79,0,*47
1532613667.71,15306,20.56,74174.3,15.73,5.23,6.51,0,*4A
1532613668.94,15307,20.56,74176.0,15.71,5.23,6.53,0,*4B
1532613670.15,15308,20.56,74172.3,15.71,5.29,6.57,0,*4A
1532613671.32,15309,20.56,74176.3,15.73,5.67,6.83,0,*4A
1532613672.52,15310,20.56,74172.3,15.73,5.07,6.51,0,*4B
1532613673.74,15311,20.56,74174.0,15.71,5.29,6.65,0,*43
1532613674.94,15312,20.56,74176.8,15.71,3.93,5.41,0,*42
1532613676.17,15313,20.56,74174.8,15.71,5.19,6.73,0,*45
1532613677.42,15314,20.56,74178.8,15.71,4.63,5.93,0,*43
1532613678.64,15315,20.56,74176.0,15.71,4.49,5.85,0,*4D
1532613679.87,15316,20.56,74172.3,15.71,4.71,6.21,0,*48
1532613681.1,15317,20.56,74172.0,15.71,4.15,5.85,0,*46
1532613682.33,15318,20.56,74172.8,15.69,4.59,6.13,0,*44
1532613683.51,15319,20.56,74172.3,15.69,4.49,6.03,0,*45
1532613684.74,15320,20.56,74172.8,15.67,4.33,5.89,0,*4D
1532613685.92,15321,20.56,74172.3,15.69,3.29,4.85,0,*43
1532613687.15,15322,20.56,74174.5,15.67,3.07,4.89,0,*4E
1532613688.38,15323,20.56,74174.0,15.69,1.63,3.53,0,*41
1532613689.61,15324,20.56,74174.3,15.67,2.05,3.89,0,*4C
1532613690.82,15325,20.56,74172.3,15.63,2.31,4.45,0,*49
1532613692.08,15326,20.56,74176.5,15.67,2.43,4.67,0,*4B
1532613693.31,15327,20.56,74174.8,15.63,2.05,4.27,0,*48
1532613694.51,15328,20.56,74174.8,15.61,1.89,4.15,0,*43
1532613695.76,15329,20.56,74172.3,15.63,2.05,4.31,0,*41
1532613697.0,15330,20.56,74172.8,15.63,2.43,4.57,0,*4B
1532613698.26,15331,20.56,74174.0,15.63,1.67,3.71,0,*4C
1532613699.52,15332,20.56,74174.3,15.63,2.01,4.05,0,*48
1532613700.75,15333,20.56,74178.5,15.63,2.65,4.67,0,*4F
1532613701.99,15334,20.56,74178.0,15.63,1.79,3.71,0,*46
1532613703.22,15335,20.56,74176.3,15.63,0.97,3.45,0,*71
1532613704.45,15336,20.56,74176.0,15.63,0.97,3.45,0,*72
1532613705.7,15337,20.56,74172.8,15.63,0.71,3.11,0,*7A
1532613706.93,15338,20.56,74174.5,15.63,0.37,2.65,0,*75
1532613708.12,15339,20.56,74174.8,15.63,-0.03,2.31,0,*6F
1532613709.3,15340,20.56,74174.8,15.61,1.05,3.25,0,*4D
1532613710.53,15341,20.56,74174.5,15.63,1.47,3.63,0,*4A
1532613711.79,15342,20.56,74176.8,15.63,1.43,3.37,0,*4C
1532613713.01,15343,20.56,74176.8,15.63,0.59,2.61,0,*75
1532613714.25,15344,20.56,74178.0,15.61,1.33,3.45,0,*4A
1532613715.45,15345,20.56,74176.0,15.61,0.47,2.61,0,*7E
1532613716.65,15346,20.56,74174.3,15.63,-0.15,2.31,0,*50
1532613717.9,15347,20.56,74176.3,15.63,0.75,3.37,0,*7D
1532613719.13,15348,20.56,74174.0,15.63,0.95,3.25,0,*7F
1532613720.37,15349,20.56,74176.3,15.63,0.75,3.23,0,*76
1532613721.61,15350,20.56,74172.3,15.67,1.21,3.63,0,*4E
1532613722.84,15351,20.56,74174.5,15.67,1.01,3.67,0,*49
1532613724.04,15352,20.56,74178.3,15.69,1.41,3.71,0,*47
1532613725.27,15353,20.56,74174.5,15.67,1.93,3.59,0,*4D
1532613726.5,15354,20.56,74176.0,15.69,2.25,3.79,0,*48
1532613727.72,15355,20.56,74176.3,15.69,0.83,2.59,0,*74
1532613728.91,15356,20.56,74176.8,15.69,0.33,2.61,0,*77
1532613730.12,15357,20.56,74176.5,15.69,-0.53,1.85,0,*54
1532613731.36,15358,20.56,74172.3,15.67,-0.11,2.43,0,*5A
1532613732.61,15359,20.56,74174.5,15.67,-0.97,1.47,0,*52
1532613733.84,15360,20.56,74176.8,15.67,-0.11,2.47,0,*55
1532613735.08,15361,20.56,74176.3,15.67,-0.57,1.85,0,*5B
1532613736.29,15362,20.56,74178.3,15.63,-0.53,1.79,0,*5B
1532613737.55,15363,20.56,74172.3,15.63,-1.35,1.37,0,*61
1532613738.73,15364,20.56,74178.0,15.61,-1.75,1.05,0,*61
1532613739.97,15365,20.56,74176.5,15.63,-1.05,1.83,0,*6B
1532613741.2,15366,20.56,74176.8,15.61,-1.13,1.55,0,*66
1532613742.39,15367,20.56,74174.8,15.61,0.13,2.31,0,*7A
1532613743.63,15368,20.56,74174.0,15.67,0.59,2.69,0,*70
1532613744.81,15369,20.56,74178.3,15.61,-0.15,1.83,0,*55
1532613746.06,15370,20.56,74176.0,15.63,0.59,2.51,0,*76
1532613747.28,15371,20.56,74176.8,15.63,0.37,2.27,0,*7E
1532613748.47,15372,20.56,74178.3,15.61,-0.29,1.89,0,*5A
1532613749.72,15373,20.56,74174.3,15.63,0.25,2.39,0,*70
1532613750.93,15374,20.56,74178.0,15.63,-0.11,1.79,0,*5A
1532613752.13,15375,20.56,74172.0,15.61,-0.53,1.67,0,*50
1532613753.36,15376,20.63,74178.8,15.61,-0.23,2.17,0,*50
1532613754.57,15377,20.56,74176.3,15.61,0.37,2.39,0,*75
1532613755.81,15378,20.56,74174.8,15.59,1.43,2.61,0,*4E
1532613757.02,15379,20.56,74178.0,15.63,0.43,1.71,0,*75
1532613758.25,15380,20.56,74178.8,15.59,0.51,1.75,0,*7D
1532613759.43,15381,20.56,74178.8,15.57,0.01,1.71,0,*43
1532613760.66,15382,20.56,74178.8,15.59,-0.33,1.67,0,*55
1532613761.89,15383,20.56,74174.5,15.59,0.71,2.61,0,*7A
1532613763.15,15384,20.56,74172.8,15.59,1.43,2.89,0,*4B
1532613764.38,15385,20.56,74176.3,15.59,2.05,3.29,0,*40
1532613765.63,15386,20.56,74178.8,15.59,2.13,3.53,0,*49
1532613766.89,15387,20.56,74176.5,15.59,2.47,3.79,0,*41
1532613768.08,15388,20.56,74176.0,15.61,2.73,3.85,0,*41
1532613769.32,15389,20.56,74178.5,15.63,2.51,3.55,0,*4F
1532613770.57,15390,20.56,74182.3,15.63,1.59,3.11,0,*4C
1532613771.83,15391,20.63,74180.5,15.63,1.29,2.55,0,*4B
1532613773.1,15392,20.56,74176.5,15.63,1.33,2.77,0,*43
1532613774.32,15393,20.56,74172.3,15.67,0.51,2.35,0,*75
1532613775.56,15394,20.63,74178.8,15.67,0.59,2.69,0,*73
1532613776.77,15395,20.56,74180.0,15.69,0.91,2.95,0,*7B
1532613777.99,15396,20.56,74180.0,15.71,0.71,2.91,0,*7B
1532613779.17,15397,20.56,74178.0,15.73,0.13,2.31,0,*76
1532613780.39,15398,20.56,74178.8,15.73,0.55,2.85,0,*74
1532613781.6,15399,20.56,74180.8,15.73,1.05,3.49,0,*40
1532613782.83,15400,20.56,74178.8,15.77,1.37,3.79,0,*41
1532613784.04,15401,20.63,74182.3,15.77,0.75,3.03,0,*7A
1532613785.27,15402,20.56,74176.3,15.79,0.91,3.55,0,*7E
1532613786.52,15403,20.56,74176.5,15.81,0.95,3.49,0,*71
1532613787.75,15404,20.56,74178.0,15.81,0.97,3.49,0,*74
1532613788.92,15405,20.56,74176.3,15.83,0.97,3.55,0,*7A
1532613790.16,15406,20.56,74178.0,15.85,0.59,3.11,0,*7D
1532613791.4,15407,20.56,74178.3,15.89,0.95,3.53,0,*76
1532613792.64,15408,20.56,74176.0,15.89,0.21,2.85,0,*7C
1532613793.83,15409,20.56,74180.5,15.89,0.01,2.91,0,*4A
1532613795.04,15410,20.56,74178.8,15.91,0.13,2.85,0,*7D
1532613796.24,15411,20.56,74176.0,15.91,-0.03,2.77,0,*6D
1532613797.41,15412,20.56,74178.0,15.95,-0.57,2.27,0,*5E
1532613798.63,15413,20.56,74178.3,15.93,-0.19,2.85,0,*5B
1532613799.85,15414,20.56,74182.0,15.93,-0.15,2.77,0,*5D
1532613801.04,15415,20.56,74180.0,15.93,0.09,2.95,0,*40
1532613802.24,15416,20.56,74176.3,15.93,0.13,2.99,0,*74
1532613803.43,15417,20.56,74180.3,15.95,0.01,2.81,0,*49
1532613804.63,15418,20.63,74182.5,15.95,-0.23,2.31,0,*50
1532613805.85,15419,20.63,74182.8,15.97,-0.49,2.21,0,*5E
1532613807.07,15420,20.63,74182.3,15.97,-0.15,2.47,0,*5D
1532613808.24,15421,20.56,74182.3,15.99,-0.33,2.31,0,*57
1532613809.41,15422,20.56,74182.0,15.99,-0.07,2.35,0,*67
1532613810.61,15423,20.56,74182.3,15.99,-0.45,1.89,0,*54
1532613811.84,15424,20.63,74182.3,16.01,0.33,2.73,0,*7B
1532613813.03,15425,20.56,74180.5,16.01,0.09,2.35,0,*41
1532613814.25,15426,20.56,74182.0,16.01,0.05,2.25,0,*4F
1532613815.47,15427,20.56,74180.0,16.01,-0.19,2.17,0,*5F
1532613816.71,15428,20.63,74182.3,16.05,0.13,2.59,0,*79
1532613817.91,15429,20.56,74178.3,16.05,-0.15,2.31,0,*5D
1532613819.13,15430,20.56,74178.0,16.05,0.29,2.65,0,*76
1532613820.32,15431,20.56,74180.0,16.07,0.43,2.81,0,*73
1532613821.53,15432,20.56,74180.8,16.07,0.13,2.55,0,*7C
1532613822.7,15433,20.56,74182.5,16.11,0.05,2.65,0,*4E
1532613823.9,15434,20.56,74182.5,16.11,0.21,2.95,0,*70
1532613825.13,15435,20.56,74182.5,16.11,0.91,3.41,0,*72
1532613826.35,15436,20.63,74180.0,16.15,1.37,3.85,0,*40
1532613827.58,15437,20.63,74180.3,16.15,0.75,3.33,0,*7B
1532613828.79,15438,20.56,74178.8,16.15,1.89,4.07,0,*46
1532613830.02,15439,20.56,74182.8,16.15,1.93,3.97,0,*42
1532613831.29,15440,20.56,74180.5,16.17,1.09,3.15,0,*47
1532613832.5,15441,20.63,74184.3,16.19,0.83,2.91,0,*76
1532613833.75,15442,20.63,74180.0,16.19,0.79,3.41,0,*7C
1532613835.0,15443,20.56,74180.3,16.23,1.21,3.71,0,*4B
1532613836.23,15444,20.63,74184.0,16.27,0.67,2.81,0,*75
1532613837.45,15445,20.63,74184.5,16.23,1.17,3.25,0,*49
1532613838.67,15446,20.56,74180.0,16.23,0.21,2.09,0,*71
1532613839.9,15447,20.56,74180.5,16.27,0.13,2.55,0,*7C
1532613841.12,15448,20.63,74180.5,16.23,1.09,3.25,0,*4B
1532613842.35,15449,20.56,74180.5,16.23,0.63,2.73,0,*75
1532613843.56,15450,20.56,74182.3,16.27,0.97,3.03,0,*74
1532613844.79,15451,20.56,74180.3,16.27,0.37,1.97,0,*70
1532613845.98,15452,20.63,74182.3,16.27,0.37,2.31,0,*7C
1532613847.22,15453,20.56,74182.0,16.27,0.17,2.13,0,*7F
1532613848.42,15454,20.56,74180.8,16.23,-0.15,1.89,0,*53
1532613849.6,15455,20.56,74180.0,16.27,0.05,2.35,0,*4E
1532613850.83,15456,20.56,74180.5,16.27,0.67,3.03,0,*7D
1532613852.07,15457,20.56,74180.5,16.29,-0.19,1.85,0,*5A
1532613853.3,15458,20.63,74182.8,16.27,0.41,2.81,0,*7C
1532613854.51,15459,20.63,74184.0,16.27,0.51,2.95,0,*79
1532613855.71,15460,20.56,74182.8,16.27,0.41,2.95,0,*72
1532613856.95,15461,20.63,74186.3,16.23,0.51,3.11,0,*7B
1532613858.16,15462,20.56,74180.8,16.27,0.55,3.25,0,*7F
1532613859.39,15463,20.56,74182.0,16.27,0.17,2.81,0,*77
1532613860.62,15464,20.56,74180.8,16.27,0.63,3.03,0,*78
1532613861.84,15465,20.63,74184.5,16.27,-0.19,2.55,0,*5B
1532613863.05,15466,20.56,74182.5,16.23,1.17,3.63,0,*4A
1532613864.3,15467,20.63,74182.0,16.27,1.13,3.49,0,*43
1532613865.55,15468,20.56,74180.5,16.23,1.21,3.49,0,*49
1532613866.77,15469,20.63,74180.0,16.23,1.59,3.93,0,*40
1532613867.98,15470,20.56,74182.3,16.23,1.05,3.11,0,*4B
1532613869.19,15471,20.56,74180.5,16.23,1.89,3.93,0,*44
1532613870.42,15472,20.56,74178.8,16.23,0.51,2.55,0,*78
1532613871.63,15473,20.56,74176.0,16.19,0.41,2.65,0,*72
1532613872.88,15474,20.63,74180.3,16.21,1.63,3.53,0,*4B
1532613874.12,15475,20.56,74178.5,16.21,2.13,3.81,0,*41
1532613875.37,15476,20.56,74178.0,16.19,1.97,3.75,0,*4D
1532613876.58,15477,20.63,74180.0,16.19,1.93,3.63,0,*4F
1532613877.81,15478,20.63,74182.0,16.19,0.67,2.55,0,*7E
1532613879.07,15479,20.63,74180.5,16.17,1.43,3.33,0,*47
1532613880.34,15480,20.56,74180.0,16.17,1.21,3.15,0,*41
1532613881.58,15481,20.63,74180.0,16.17,1.59,3.25,0,*4C
1532613882.82,15482,20.56,74180.5,16.15,1.55,3.03,0,*45
1532613884.05,15483,20.56,74182.8,16.17,1.43,2.91,0,*4B
1532613885.31,15484,20.56,74180.3,16.17,0.51,2.09,0,*7F
1532613886.58,15485,20.63,74180.8,16.17,1.33,2.89,0,*43
1532613887.82,15486,20.56,74178.5,16.15,1.09,2.39,0,*40
1532613889.07,15487,20.56,74178.5,16.15,1.17,2.55,0,*44
1532613890.34,15488,20.56,74180.5,16.17,1.21,2.43,0,*4B
1532613891.56,15489,20.63,74180.3,16.15,0.37,1.33,0,*7A
1532613892.8,15490,20.56,74178.8,16.15,1.43,2.51,0,*47
1532613894.04,15491,20.56,74180.3,16.15,1.25,2.21,0,*41
1532613895.29,15492,20.56,74178.8,16.17,0.37,1.25,0,*75
1532613896.49,15493,20.56,74178.8,16.15,1.25,2.31,0,*42
1532613897.73,15494,20.63,74180.5,16.17,1.25,2.27,0,*40
1532613898.99,15495,20.63,74182.5,16.17,1.67,2.77,0,*42
1532613900.21,15496,20.63,74182.8,16.19,1.51,2.65,0,*49
1532613901.46,15497,20.63,74180.5,16.21,0.71,1.67,0,*71
1532613902.7,15498,20.63,74180.3,16.21,0.17,1.43,0,*78
1532613903.95,15499,20.63,74182.3,16.21,0.95,2.25,0,*70
1532613905.22,15500,20.56,74178.5,16.21,1.29,2.39,0,*4A
1532613906.41,15501,20.63,74182.0,16.23,1.83,2.91,0,*4B
1532613907.64,15502,20.63,74180.5,16.23,0.95,2.17,0,*70
1532613908.85,15503,20.63,74180.3,16.23,1.89,3.25,0,*4D
1532613910.04,15504,20.56,74178.8,16.27,1.75,2.91,0,*43
1532613911.26,15505,20.63,74180.8,16.27,1.97,3.29,0,*4C
1532613912.5,15506,20.56,74180.8,16.29,1.41,2.69,0,*4F
1532613913.74,15507,20.63,74182.5,16.29,1.71,3.25,0,*44
1532613914.97,15508,20.63,74182.8,16.29,2.25,3.85,0,*43
1532613916.21,15509,20.63,74178.5,16.31,2.13,3.71,0,*45
1532613917.44,15510,20.56,74180.5,16.31,1.43,3.19,0,*45
1532613918.7,15511,20.56,74176.3,16.33,2.01,3.49,0,*46
1532613919.97,15512,20.63,74180.8,16.33,1.43,3.11,0,*4D
1532613921.23,15513,20.63,74178.3,16.37,1.93,3.49,0,*48
1532613922.48,15514,20.63,74176.3,16.33,0.67,2.25,0,*7A
1532613923.74,15515,20.63,74182.0,16.37,1.09,2.89,0,*40
1532613925.0,15516,20.63,74176.3,16.37,1.43,3.03,0,*4E
1532613926.26,15517,20.63,74180.3,16.37,1.51,3.07,0,*48
1532613927.5,15518,20.63,74182.5,16.37,0.91,2.65,0,*7F
1532613928.76,15519,20.63,74182.5,16.37,0.79,2.55,0,*7B
1532613930.0,15520,20.56,74178.0,16.37,0.17,2.05,0,*7C
1532613931.23,15521,20.63,74178.5,16.37,0.79,2.35,0,*76
1532613932.45,15522,20.56,74176.0,16.37,0.67,2.35,0,*7A
1532613933.71,15523,20.63,74180.3,16.37,0.79,2.47,0,*71
1532613934.96,15524,20.63,74180.8,16.37,0.79,2.05,0,*70
1532613936.22,15525,20.63,74178.3,16.37,0.79,1.85,0,*7A
1532613937.46,15526,20.63,74178.8,16.33,0.55,1.79,0,*70
1532613938.69,15527,20.63,74182.3,16.33,0.75,1.79,0,*73
1532613939.92,15528,20.63,74178.5,16.33,-0.49,0.33,0,*61
1532613941.11,15529,20.63,74176.8,16.31,-0.07,0.67,0,*59
1532613942.35,15530,20.63,74182.5,16.29,-0.93,-0.33,0,*49
1532613943.57,15531,20.63,74178.0,16.27,-0.93,-0.33,0,*46
1532613944.81,15532,20.56,74178.3,16.27,-0.97,-0.23,0,*40
1532613946.05,15533,20.63,74176.8,16.23,-0.85,-0.27,0,*42
1532613947.3,15534,20.63,74182.8,16.23,-1.87,-1.35,0,*44
1532613948.53,15535,20.63,74178.8,16.23,-3.11,-2.63,0,*48
1532613949.75,15536,20.63,74178.0,16.21,-1.75,-1.21,0,*4C
1532613951.0,15537,20.63,74182.0,16.21,-1.63,-1.05,0,*4C
1532613952.23,15538,20.56,74176.3,16.21,-1.75,-0.93,0,*7A
1532613953.48,15539,20.63,74176.0,16.21,-2.31,-1.43,0,*44
1532613954.71,15540,20.63,74176.3,16.19,-2.11,-1.33,0,*44
1532613955.95,15541,20.63,74178.5,16.21,-1.87,-0.81,0,*7A
1532613957.2,15542,20.63,74176.8,16.21,-2.19,-1.05,0,*40
1532613958.42,15543,20.56,74172.3,16.21,-3.31,-2.15,0,*48
1532613959.64,15544,20.56,74172.8,16.23,-2.67,-1.59,0,*44
1532613960.88,15545,20.63,74180.3,16.23,-3.79,-2.63,0,*41
1532613962.08,15546,20.63,74178.8,16.23,-4.25,-2.99,0,*49
1532613963.28,15547,20.63,74178.3,16.23,-4.33,-3.15,0,*4A
1532613964.49,15548,20.56,74176.8,16.21,-4.99,-4.05,0,*41
1532613965.69,15549,20.63,74176.8,16.23,-5.35,-4.13,0,*42
1532613966.94,15550,20.63,74176.0,16.21,-6.43,-5.15,0,*4D
1532613968.17,15551,20.63,74178.8,16.19,-6.23,-4.99,0,*44
1532613969.37,15552,20.63,74176.8,16.19,-6.05,-4.65,0,*40
1532613970.57,15553,20.63,74180.8,16.19,-6.85,-5.43,0,*4C
1532613971.8,15554,20.63,74178.5,16.19,-7.23,-5.69,0,*4E
1532613973.05,15555,20.63,74180.0,16.17,-6.59,-5.31,0,*40
1532613974.31,15556,20.63,74178.8,16.17,-6.51,-5.07,0,*4E
1532613975.56,15557,20.63,74180.8,16.21,-6.01,-4.73,0,*4D
1532613976.76,15558,20.63,74176.5,16.19,-6.55,-5.43,0,*4A
1532613977.99,15559,20.63,74180.0,16.19,-7.91,-6.55,0,*46
1532613979.19,15560,20.56,74176.0,16.19,-7.83,-6.73,0,*4B
1532613980.39,15561,20.63,74174.0,16.19,-8.45,-7.53,0,*4C
1532613981.61,15562,20.63,74180.3,16.19,-7.91,-6.85,0,*43
1532613982.86,15563,20.63,74178.0,16.21,-8.03,-7.11,0,*41
1532613984.08,15564,20.63,74178.0,16.21,-6.85,-6.01,0,*46
1532613985.31,15565,20.63,74180.3,16.27,-6.09,-5.15,0,*43
1532613986.57,15566,20.63,74178.8,16.27,-5.93,-5.03,0,*47
1532613987.8,15567,20.63,74182.0,16.27,-6.73,-5.77,0,*48
1532613989.02,15568,20.63,74180.3,16.31,-6.55,-5.89,0,*45
1532613990.22,15569,20.63,74182.3,16.31,-7.49,-6.39,0,*40
1532613991.47,15570,20.63,74182.3,16.31,-6.19,-4.93,0,*4E
1532613992.74,15571,20.63,74186.3,16.37,-6.23,-5.27,0,*4E
1532613993.99,15572,20.63,74180.5,16.37,-8.37,-7.65,0,*42
1532613995.24,15573,20.63,74182.8,16.37,-8.21,-7.39,0,*4D
1532613996.46,15574,20.63,74180.3,16.39,-7.77,-6.85,0,*4E
1532613997.69,15575,20.63,74180.5,16.43,-7.11,-5.93,0,*46
1532613998.91,15576,20.63,74178.8,16.45,-7.27,-6.01,0,*4E
1532614000.11,15577,20.63,74182.0,16.49,-7.19,-6.01,0,*4E
1532614001.33,15578,20.63,74176.8,16.49,-7.35,-6.13,0,*4C
1532614002.54,15579,20.56,74176.3,16.49,-6.69,-5.77,0,*44
1532614003.74,15580,20.63,74182.8,16.53,-6.09,-5.35,0,*49
1532614004.98,15581,20.63,74180.5,16.55,-7.31,-6.81,0,*48
1532614006.23,15582,20.63,74182.8,16.55,-7.05,-6.09,0,*4C
1532614007.44,15583,20.63,74180.5,16.61,-6.97,-6.05,0,*4C
1532614008.69,15584,20.63,74178.0,16.63,-5.93,-4.99,0,*49
1532614009.91,15585,20.63,74180.3,16.63,-6.13,-5.51,0,*46
1532614011.13,15586,20.63,74180.0,16.67,-6.77,-6.09,0,*4D
1532614012.36,15587,20.63,74182.0,16.65,-6.43,-5.85,0,*4E
1532614013.57,15588,20.63,74180.3,16.69,-6.05,-5.11,0,*42
1532614014.77,15589,20.63,74182.3,16.73,-7.11,-5.97,0,*42
1532614015.99,15590,20.63,74184.5,16.73,-6.89,-5.89,0,*45
1532614017.24,15591,20.63,74180.5,16.75,-7.43,-6.31,0,*45
1532614018.48,15592,20.63,74178.5,16.77,-6.97,-6.05,0,*4B
1532614019.73,15593,20.63,74180.5,16.81,-7.65,-6.55,0,*4A
1532614020.97,15594,20.63,74182.0,16.81,-6.97,-6.09,0,*48
1532614022.22,15595,20.63,74180.5,16.85,-8.11,-6.81,0,*4D
1532614023.47,15596,20.63,74180.0,16.85,-7.61,-6.55,0,*4F
1532614024.72,15597,20.63,74176.8,16.89,-7.05,-6.51,0,*44
1532614025.96,15598,20.63,74182.8,16.89,-7.53,-7.05,0,*48
1532614027.18,15599,20.63,74180.5,16.91,-7.27,-6.35,0,*41
1532614028.42,15600,20.63,74180.3,16.93,-7.99,-7.19,0,*4A
1532614029.62,15601,20.63,74178.5,16.95,-6.81,-5.47,0,*4C
1532614030.86,15602,20.63,74180.8,16.95,-7.01,-6.27,0,*43
1532614032.09,15603,20.63,74182.8,16.97,-8.33,-7.95,0,*46
1532614033.31,15604,20.56,74176.0,16.97,-7.53,-6.73,0,*41
1532614034.55,15605,20.63,74182.0,16.97,-9.15,-8.67,0,*47
1532614035.8,15606,20.63,74182.8,16.97,-8.89,-7.99,0,*4E
1532614037.05,15607,20.63,74182.3,16.97,-7.73,-6.89,0,*45
1532614038.29,15608,20.63,74180.8,17.01,-7.61,-6.55,0,*46
1532614039.51,15609,20.63,74182.0,17.05,-7.53,-6.73,0,*46
1532614040.75,15610,20.63,74180.8,17.07,-8.07,-7.27,0,*42
1532614041.98,15611,20.63,74182.5,17.07,-7.99,-7.05,0,*4B
1532614043.2,15612,20.63,74182.5,17.07,-9.01,-8.11,0,*4D
1532614044.45,15613,20.63,74180.3,17.11,-8.37,-7.39,0,*4A
1532614045.67,15614,20.63,74184.8,17.11,-7.83,-6.85,0,*4B
1532614046.92,15615,20.63,74182.0,17.11,-8.71,-7.69,0,*4B
1532614048.19,15616,20.63,74180.3,17.15,-7.99,-6.97,0,*45
1532614049.41,15617,20.63,74182.3,17.15,-7.87,-7.15,0,*40
1532614050.68,15618,20.63,74184.5,17.19,-8.11,-7.27,0,*42
1532614051.9,15619,20.63,74184.0,17.17,-8.37,-7.57,0,*4E
1532614053.18,15620,20.63,74182.8,17.19,-8.51,-7.43,0,*4F
1532614054.42,15621,20.63,74184.0,17.19,-7.95,-6.85,0,*42
1532614055.68,15622,20.63,74186.0,17.19,-7.65,-6.63,0,*46
1532614056.95,15623,20.63,74184.5,17.23,-8.03,-6.97,0,*4A
1532614058.19,15624,20.63,74184.0,17.23,-7.61,-6.59,0,*44
1532614059.44,15625,20.63,74188.3,17.29,-7.01,-6.19,0,*4D
1532614060.66,15626,20.63,74186.3,17.29,-6.73,-5.73,0,*45
1532614061.9,15627,20.63,74192.3,17.33,-7.05,-5.89,0,*4A
1532614063.15,15628,20.56,74184.0,17.31,-10.23,-9.15,0,*7C
1532614064.33,15629,20.63,74182.8,17.33,-9.93,-8.59,0,*45
1532614065.54,15630,20.63,74184.8,17.33,-9.53,-8.45,0,*4C
1532614066.75,15631,20.63,74184.5,17.31,-9.75,-8.59,0,*46
1532614067.95,15632,20.63,74182.0,17.33,-11.19,-9.97,0,*77
1532614069.19,15633,20.63,74180.5,17.31,-10.53,-9.15,0,*71
1532614070.4,15634,20.63,74184.8,17.29,-9.83,-8.71,0,*49
1532614071.62,15635,20.63,74182.3,17.29,-9.31,-8.07,0,*40
1532614072.85,15636,20.63,74186.0,17.29,-9.05,-7.77,0,*4C
1532614074.07,15637,20.63,74180.5,17.29,-8.11,-6.85,0,*45
1532614075.32,15638,20.63,74180.5,17.31,-8.07,-6.77,0,*49
1532614076.54,15639,20.63,74184.0,17.33,-7.61,-6.43,0,*42
1532614077.81,15640,20.63,74184.5,17.35,-7.01,-5.85,0,*45
1532614079.06,15641,20.63,74182.3,17.39,-6.77,-5.61,0,*42
1532614080.31,15642,20.63,74186.3,17.39,-7.19,-5.93,0,*45
1532614081.53,15643,20.63,74184.8,17.39,-7.53,-6.35,0,*45
1532614082.76,15644,20.63,74186.5,17.43,-9.53,-8.41,0,*4C
1532614083.98,15645,20.63,74186.3,17.43,-9.71,-8.17,0,*4E
1532614085.19,15646,20.63,74184.5,17.41,-8.71,-7.23,0,*46
1532614086.4,15647,20.63,74186.0,17.43,-8.33,-6.85,0,*4E
1532614087.64,15648,20.63,74182.5,17.43,-9.23,-7.77,0,*4D
1532614088.84,15649,20.63,74182.5,17.45,-8.97,-7.19,0,*4C
1532614090.09,15650,20.63,74180.3,17.43,-8.89,-6.97,0,*4A
1532614091.33,15651,20.63,74182.5,17.43,-7.49,-5.77,0,*45
1532614092.54,15652,20.63,74178.0,17.41,-8.03,-6.55,0,*46
1532614093.76,15653,20.63,74180.3,17.41,-7.77,-6.59,0,*47
1532614094.96,15654,20.63,74186.3,17.41,-8.75,-7.83,0,*4B
1532614096.21,15655,20.63,74186.3,17.39,-8.45,-7.31,0,*4F
1532614097.45,15656,20.63,74184.5,17.39,-8.59,-7.31,0,*41
1532614098.71,15657,20.63,74184.8,17.39,-9.53,-8.11,0,*46
1532614099.95,15658,20.63,74186.3,17.37,-9.83,-7.77,0,*45
1532614101.18,15659,20.63,74186.8,17.37,-7.19,-5.61,0,*4C
1532614102.39,15660,20.63,74180.8,17.37,-7.31,-6.39,0,*42
1532614103.63,15661,20.63,74180.3,17.37,-6.63,-5.81,0,*45
1532614104.85,15662,20.63,74186.8,17.37,-7.31,-6.51,0,*4E
1532614106.06,15663,20.63,74186.3,17.37,-8.33,-7.27,0,*42
1532614107.29,15664,20.63,74186.3,17.37,-7.15,-5.61,0,*4E
1532614108.53,15665,20.63,74188.3,17.39,-6.97,-5.43,0,*4A
1532614109.75,15666,20.63,74188.8,17.41,-7.27,-5.43,0,*4C
1532614110.97,15667,20.63,74188.5,17.43,-8.71,-6.85,0,*4A
1532614112.24,15668,20.63,74188.8,17.43,-7.77,-5.69,0,*4D
1532614113.47,15669,20.63,74194.5,17.45,-7.11,-5.61,0,*42
1532614114.66,15670,20.63,74192.5,17.45,-8.25,-6.69,0,*49
1532614115.88,15671,20.63,74192.5,17.43,-8.33,-6.59,0,*4A
1532614117.07,15672,20.63,74194.8,17.45,-8.17,-6.43,0,*42
1532614118.35,15673,20.63,74188.3,17.51,-9.15,-7.35,0,*45